User: anonymous   Login
Location: Unspecified
(0.0000°N, 0.0000°E)
Time: 14:11:37
(UTC+00:00)
Language:

CP-7 DAVE - Orbit

View from above orbital plane
View from above orbital plane
View from above satellite
View from above satellite

Ground track
Ground track

The orbit data is extracted from the following two-line orbital elements,

1 43615U 18070C   19047.80230046 +.00002002 +00000-0 +55423-4 0  9996
2 43615 093.0391 313.3169 0018979 060.6981 299.6165 15.36910626023682
Epoch (UTC): 16 February 2019 19:15:18
Eccentricity: 0.0018979
inclination: 93.0391°
perigee height: 442 km
apogee height: 468 km
right ascension of ascending node: 313.3169°
argument of perigee: 60.6981°
revolutions per day: 15.36910626
mean anomaly at epoch: 299.6165°
orbit number at epoch: 2368

The dashed part of the orbit path shows where the satellite is in the earth's shadow,  

DLR